����������;��������(kWh)
2018-07-23 00:00;90,4
2018-07-23 00:15;91
2018-07-23 00:30;89,5
2018-07-23 00:45;89,8
2018-07-23 01:00;89,65
2018-07-23 01:15;89,05
2018-07-23 01:30;87,8
2018-07-23 01:45;87,45
2018-07-23 02:00;89,45
2018-07-23 02:15;87,9
2018-07-23 02:30;88,5
2018-07-23 02:45;87,6
2018-07-23 03:00;86,4
2018-07-23 03:15;88
2018-07-23 03:30;89,1
2018-07-23 03:45;90,2
2018-07-23 04:00;89,75
2018-07-23 04:15;94,7
2018-07-23 04:30;94,05
2018-07-23 04:45;95,8
2018-07-23 05:00;96,5
2018-07-23 05:15;94,6
2018-07-23 05:30;89,7
2018-07-23 05:45;90,1
2018-07-23 06:00;88,45
2018-07-23 06:15;86,05
2018-07-23 06:30;87,35
2018-07-23 06:45;115,5
2018-07-23 07:00;116,05
2018-07-23 07:15;120,1
2018-07-23 07:30;111,7
2018-07-23 07:45;170,75
2018-07-23 08:00;162,15
2018-07-23 08:15;187
2018-07-23 08:30;199,9
2018-07-23 08:45;176,2
2018-07-23 09:00;186,75
2018-07-23 09:15;205
2018-07-23 09:30;215,3
2018-07-23 09:45;222,3
2018-07-23 10:00;235,25
2018-07-23 10:15;239,1
2018-07-23 10:30;255
2018-07-23 10:45;280,85
2018-07-23 11:00;262,7
2018-07-23 11:15;282,25
2018-07-23 11:30;276,45
2018-07-23 11:45;293,85
2018-07-23 12:00;280,7
2018-07-23 12:15;301,2
2018-07-23 12:30;279,5
2018-07-23 12:45;302,35
2018-07-23 13:00;286,8
2018-07-23 13:15;310,35
2018-07-23 13:30;294,85
2018-07-23 13:45;309,15
2018-07-23 14:00;296,55
2018-07-23 14:15;311,85
2018-07-23 14:30;289,4
2018-07-23 14:45;296,8
2018-07-23 15:00;302,1
2018-07-23 15:15;263,65
2018-07-23 15:30;262,8
2018-07-23 15:45;263,3
2018-07-23 16:00;266,1
2018-07-23 16:15;226,75
2018-07-23 16:30;237,4
2018-07-23 16:45;210,35
2018-07-23 17:00;209,3
2018-07-23 17:15;206,05
2018-07-23 17:30;201,15
2018-07-23 17:45;184,55
2018-07-23 18:00;181,9
2018-07-23 18:15;136,5
2018-07-23 18:30;11
2018-07-23 18:45;175,6
2018-07-23 19:00;148,45
2018-07-23 19:15;137,1
2018-07-23 19:30;139,95
2018-07-23 19:45;140,45
2018-07-23 20:00;140,25
2018-07-23 20:15;124,45
2018-07-23 20:30;119,8
2018-07-23 20:45;122,4
2018-07-23 21:00;122,1
2018-07-23 21:15;120,65
2018-07-23 21:30;122,2
2018-07-23 21:45;120,6
2018-07-23 22:00;119,7
2018-07-23 22:15;119
2018-07-23 22:30;113,9
2018-07-23 22:45;114,6
2018-07-23 23:00;116,5
2018-07-23 23:15;109,45
2018-07-23 23:30;110,2
2018-07-23 23:45;109,25
2018-07-24 00:00;100,9
2018-07-24 00:15;99,9
2018-07-24 00:30;101,25
2018-07-24 00:45;98,9
2018-07-24 01:00;86,75
2018-07-24 01:15;88,1
2018-07-24 01:30;87,3
2018-07-24 01:45;86,2
2018-07-24 02:00;85,75
2018-07-24 02:15;85,9
2018-07-24 02:30;86,1
2018-07-24 02:45;84
2018-07-24 03:00;83,65
2018-07-24 03:15;82,4
2018-07-24 03:30;84,4
2018-07-24 03:45;83,3
2018-07-24 04:00;82,9
2018-07-24 04:15;83,65
2018-07-24 04:30;84,95
2018-07-24 04:45;81,9
2018-07-24 05:00;83,55
2018-07-24 05:15;81,15
2018-07-24 05:30;82,2
2018-07-24 05:45;83,15
2018-07-24 06:00;84
2018-07-24 06:15;83,15
2018-07-24 06:30;80,1
2018-07-24 06:45;109,1
2018-07-24 07:00;109,3
2018-07-24 07:15;110,3
2018-07-24 07:30;108,65
2018-07-24 07:45;162,2
2018-07-24 08:00;123,15
2018-07-24 08:15;160,4
2018-07-24 08:30;178,65
2018-07-24 08:45;172,55
2018-07-24 09:00;181,2
2018-07-24 09:15;204,85
2018-07-24 09:30;216,25
2018-07-24 09:45;223,45
2018-07-24 10:00;231,85
2018-07-24 10:15;236,75
2018-07-24 10:30;245,9
2018-07-24 10:45;255,55
2018-07-24 11:00;263,85
2018-07-24 11:15;278,85
2018-07-24 11:30;265,45
2018-07-24 11:45;276,05
2018-07-24 12:00;264,4
2018-07-24 12:15;280
2018-07-24 12:30;267,25
2018-07-24 12:45;281
2018-07-24 13:00;270,45
2018-07-24 13:15;273,05
2018-07-24 13:30;275,15
2018-07-24 13:45;274,25
2018-07-24 14:00;269,15
2018-07-24 14:15;286,6
2018-07-24 14:30;268,5
2018-07-24 14:45;270,45
2018-07-24 15:00;244,3
2018-07-24 15:15;239,65
2018-07-24 15:30;221,7
2018-07-24 15:45;223,65
2018-07-24 16:00;223,35
2018-07-24 16:15;229
2018-07-24 16:30;206,05
2018-07-24 16:45;203,6
2018-07-24 17:00;174,75
2018-07-24 17:15;183,9
2018-07-24 17:30;174,65
2018-07-24 17:45;158,85
2018-07-24 18:00;161,25
2018-07-24 18:15;163,25
2018-07-24 18:30;149,25
2018-07-24 18:45;147,5
2018-07-24 19:00;151,25
2018-07-24 19:15;143,5
2018-07-24 19:30;139,55
2018-07-24 19:45;134,05
2018-07-24 20:00;128,75
2018-07-24 20:15;123
2018-07-24 20:30;125,55
2018-07-24 20:45;123
2018-07-24 21:00;128,4
2018-07-24 21:15;125,8
2018-07-24 21:30;126,8
2018-07-24 21:45;121,2
2018-07-24 22:00;116,5
2018-07-24 22:15;115,2
2018-07-24 22:30;111,9
2018-07-24 22:45;110,35
2018-07-24 23:00;117,1
2018-07-24 23:15;108,25
2018-07-24 23:30;107,1
2018-07-24 23:45;105,75
2018-07-25 00:00;99,05
2018-07-25 00:15;85,9
2018-07-25 00:30;87,7
2018-07-25 00:45;86,8
2018-07-25 01:00;88,4
2018-07-25 01:15;85,5
2018-07-25 01:30;84,7
2018-07-25 01:45;86,3
2018-07-25 02:00;84,3
2018-07-25 02:15;85,75
2018-07-25 02:30;83,3
2018-07-25 02:45;86,55
2018-07-25 03:00;84,9
2018-07-25 03:15;85,3
2018-07-25 03:30;83,4
2018-07-25 03:45;84
2018-07-25 04:00;85,65
2018-07-25 04:15;83,45
2018-07-25 04:30;84,25
2018-07-25 04:45;83,25
2018-07-25 05:00;83,85
2018-07-25 05:15;84,1
2018-07-25 05:30;91,45
2018-07-25 05:45;94,2
2018-07-25 06:00;92,1
2018-07-25 06:15;94,2
2018-07-25 06:30;91,7
2018-07-25 06:45;90,5
2018-07-25 07:00;105,25
2018-07-25 07:15;119,65
2018-07-25 07:30;121,4
2018-07-25 07:45;170,6
2018-07-25 08:00;127,5
2018-07-25 08:15;166,3
2018-07-25 08:30;171,35
2018-07-25 08:45;169,3
2018-07-25 09:00;174,05
2018-07-25 09:15;188,9
2018-07-25 09:30;197,3
2018-07-25 09:45;205,65
2018-07-25 10:00;215,05
2018-07-25 10:15;223,75
2018-07-25 10:30;228,55
2018-07-25 10:45;236,4
2018-07-25 11:00;244,8
2018-07-25 11:15;246,3
2018-07-25 11:30;256
2018-07-25 11:45;260,35
2018-07-25 12:00;265,85
2018-07-25 12:15;267,45
2018-07-25 12:30;262,95
2018-07-25 12:45;265,5
2018-07-25 13:00;262,4
2018-07-25 13:15;266,8
2018-07-25 13:30;265,85
2018-07-25 13:45;263,6
2018-07-25 14:00;264,95
2018-07-25 14:15;260,1
2018-07-25 14:30;259,95
2018-07-25 14:45;254,75
2018-07-25 15:00;248,75
2018-07-25 15:15;231,4
2018-07-25 15:30;229,25
2018-07-25 15:45;224,95
2018-07-25 16:00;216,1
2018-07-25 16:15;206,85
2018-07-25 16:30;188,3
2018-07-25 16:45;178,3
2018-07-25 17:00;175
2018-07-25 17:15;171,4
2018-07-25 17:30;170,6
2018-07-25 17:45;152,65
2018-07-25 18:00;158,15
2018-07-25 18:15;152,25
2018-07-25 18:30;146,4
2018-07-25 18:45;147,75
2018-07-25 19:00;150,55
2018-07-25 19:15;139,1
2018-07-25 19:30;129,85
2018-07-25 19:45;127,35
2018-07-25 20:00;121,9
2018-07-25 20:15;119,45
2018-07-25 20:30;120,3
2018-07-25 20:45;120,25
2018-07-25 21:00;109,1
2018-07-25 21:15;107,1
2018-07-25 21:30;104,7
2018-07-25 21:45;105,7
2018-07-25 22:00;103,45
2018-07-25 22:15;103,2
2018-07-25 22:30;103,2
2018-07-25 22:45;102,15
2018-07-25 23:00;106,25
2018-07-25 23:15;101,9
2018-07-25 23:30;97,1
2018-07-25 23:45;98,45
2018-07-26 00:00;89,95
2018-07-26 00:15;92,9
2018-07-26 00:30;91,1
2018-07-26 00:45;91,75
2018-07-26 01:00;91,6
2018-07-26 01:15;91,4
2018-07-26 01:30;88,65
2018-07-26 01:45;88,2
2018-07-26 02:00;87,7
2018-07-26 02:15;87,55
2018-07-26 02:30;85,35
2018-07-26 02:45;87,2
2018-07-26 03:00;85,6
2018-07-26 03:15;87,7
2018-07-26 03:30;86,75
2018-07-26 03:45;87,35
2018-07-26 04:00;86,3
2018-07-26 04:15;86,55
2018-07-26 04:30;85,85
2018-07-26 04:45;86,45
2018-07-26 05:00;86
2018-07-26 05:15;86
2018-07-26 05:30;85,6
2018-07-26 05:45;84,05
2018-07-26 06:00;88
2018-07-26 06:15;93,95
2018-07-26 06:30;92,1
2018-07-26 06:45;92,65
2018-07-26 07:00;95,95
2018-07-26 07:15;94,8
2018-07-26 07:30;99,05
2018-07-26 07:45;168,65
2018-07-26 08:00;149,5
2018-07-26 08:15;186,05
2018-07-26 08:30;187,05
2018-07-26 08:45;164,35
2018-07-26 09:00;178,8
2018-07-26 09:15;198,4
2018-07-26 09:30;190,5
2018-07-26 09:45;207,2
2018-07-26 10:00;217
2018-07-26 10:15;213
2018-07-26 10:30;236,55
2018-07-26 10:45;230,8
2018-07-26 11:00;232,75
2018-07-26 11:15;244,25
2018-07-26 11:30;240,85
2018-07-26 11:45;256,8
2018-07-26 12:00;240,75
2018-07-26 12:15;250,25
2018-07-26 12:30;244
2018-07-26 12:45;246,5
2018-07-26 13:00;242,4
2018-07-26 13:15;239,3
2018-07-26 13:30;234,35
2018-07-26 13:45;238,8
2018-07-26 14:00;238,05
2018-07-26 14:15;234,2
2018-07-26 14:30;233,5
2018-07-26 14:45;229
2018-07-26 15:00;221,4
2018-07-26 15:15;212,7
2018-07-26 15:30;216,7
2018-07-26 15:45;210,65
2018-07-26 16:00;205,9
2018-07-26 16:15;196,8
2018-07-26 16:30;192,15
2018-07-26 16:45;182,2
2018-07-26 17:00;168,95
2018-07-26 17:15;162,55
2018-07-26 17:30;156,95
2018-07-26 17:45;144,6
2018-07-26 18:00;147,15
2018-07-26 18:15;145,9
2018-07-26 18:30;147,6
2018-07-26 18:45;140,25
2018-07-26 19:00;136,05
2018-07-26 19:15;133,7
2018-07-26 19:30;130,55
2018-07-26 19:45;130,05
2018-07-26 20:00;126,3
2018-07-26 20:15;123,1
2018-07-26 20:30;119,9
2018-07-26 20:45;118
2018-07-26 21:00;119,9
2018-07-26 21:15;116,55
2018-07-26 21:30;108,15
2018-07-26 21:45;110,75
2018-07-26 22:00;106,05
2018-07-26 22:15;107,55
2018-07-26 22:30;103,75
2018-07-26 22:45;106,35
2018-07-26 23:00;99,5
2018-07-26 23:15;94,95
2018-07-26 23:30;94,15
2018-07-26 23:45;97,3
2018-07-27 00:00;88,55
2018-07-27 00:15;90,35
2018-07-27 00:30;87,7
2018-07-27 00:45;88,6
2018-07-27 01:00;86,85
2018-07-27 01:15;88,2
2018-07-27 01:30;85,8
2018-07-27 01:45;87,85
2018-07-27 02:00;86,15
2018-07-27 02:15;84,8
2018-07-27 02:30;87,35
2018-07-27 02:45;84,6
2018-07-27 03:00;87,85
2018-07-27 03:15;85,45
2018-07-27 03:30;87,2
2018-07-27 03:45;85,45
2018-07-27 04:00;89
2018-07-27 04:15;85,7
2018-07-27 04:30;87,6
2018-07-27 04:45;109,6
2018-07-27 05:00;114,45
2018-07-27 05:15;107,55
2018-07-27 05:30;100,3
2018-07-27 05:45;102,05
2018-07-27 06:00;97,35
2018-07-27 06:15;104
2018-07-27 06:30;102,95
2018-07-27 06:45;101,75
2018-07-27 07:00;106,2
2018-07-27 07:15;103,45
2018-07-27 07:30;108,05
2018-07-27 07:45;159,15
2018-07-27 08:00;126,75
2018-07-27 08:15;134,8
2018-07-27 08:30;153
2018-07-27 08:45;155,9
2018-07-27 09:00;167,85
2018-07-27 09:15;169,4
2018-07-27 09:30;178,95
2018-07-27 09:45;186,15
2018-07-27 10:00;191,75
2018-07-27 10:15;205,95
2018-07-27 10:30;211,95
2018-07-27 10:45;218
2018-07-27 11:00;219,15
2018-07-27 11:15;229,85
2018-07-27 11:30;225,15
2018-07-27 11:45;224,6
2018-07-27 12:00;233,3
2018-07-27 12:15;233,75
2018-07-27 12:30;238,85
2018-07-27 12:45;237,45
2018-07-27 13:00;232
2018-07-27 13:15;228,85
2018-07-27 13:30;224,25
2018-07-27 13:45;225,5
2018-07-27 14:00;226,3
2018-07-27 14:15;227,45
2018-07-27 14:30;223,8
2018-07-27 14:45;226,5
2018-07-27 15:00;222,05
2018-07-27 15:15;211,8
2018-07-27 15:30;212,6
2018-07-27 15:45;201,75
2018-07-27 16:00;198,6
2018-07-27 16:15;187,85
2018-07-27 16:30;185,95
2018-07-27 16:45;184,9
2018-07-27 17:00;166,45
2018-07-27 17:15;158,15
2018-07-27 17:30;153
2018-07-27 17:45;141,7
2018-07-27 18:00;148,15
2018-07-27 18:15;149,3
2018-07-27 18:30;143,15
2018-07-27 18:45;134,1
2018-07-27 19:00;144,5
2018-07-27 19:15;133,7
2018-07-27 19:30;130,35
2018-07-27 19:45;130,7
2018-07-27 20:00;124,3
2018-07-27 20:15;121,95
2018-07-27 20:30;122,7
2018-07-27 20:45;124,2
2018-07-27 21:00;124,85
2018-07-27 21:15;121,5
2018-07-27 21:30;118,5
2018-07-27 21:45;119,85
2018-07-27 22:00;116,25
2018-07-27 22:15;117,55
2018-07-27 22:30;108,85
2018-07-27 22:45;102,5
2018-07-27 23:00;98,1
2018-07-27 23:15;94,5
2018-07-27 23:30;90,3
2018-07-27 23:45;89,65
2018-07-28 00:00;84,35
2018-07-28 00:15;83,2
2018-07-28 00:30;84,2
2018-07-28 00:45;82,55
2018-07-28 01:00;85,1
2018-07-28 01:15;82,65
2018-07-28 01:30;84,9
2018-07-28 01:45;83,05
2018-07-28 02:00;84,7
2018-07-28 02:15;81,85
2018-07-28 02:30;84,6
2018-07-28 02:45;83,45
2018-07-28 03:00;83,5
2018-07-28 03:15;82,8
2018-07-28 03:30;85,25
2018-07-28 03:45;83,5
2018-07-28 04:00;84,75
2018-07-28 04:15;82,9
2018-07-28 04:30;84,05
2018-07-28 04:45;83,05
2018-07-28 05:00;84,9
2018-07-28 05:15;83,75
2018-07-28 05:30;84,55
2018-07-28 05:45;82,45
2018-07-28 06:00;83,65
2018-07-28 06:15;82,85
2018-07-28 06:30;78,75
2018-07-28 06:45;78,25
2018-07-28 07:00;76,4
2018-07-28 07:15;76,35
2018-07-28 07:30;74,15
2018-07-28 07:45;74,85
2018-07-28 08:00;74,65
2018-07-28 08:15;76,5
2018-07-28 08:30;78
2018-07-28 08:45;78,35
2018-07-28 09:00;79,1
2018-07-28 09:15;78,6
2018-07-28 09:30;78,7
2018-07-28 09:45;78,65
2018-07-28 10:00;80,95
2018-07-28 10:15;79,05
2018-07-28 10:30;81,95
2018-07-28 10:45;84,9
2018-07-28 11:00;84,75
2018-07-28 11:15;88,45
2018-07-28 11:30;88,15
2018-07-28 11:45;91,05
2018-07-28 12:00;94,35
2018-07-28 12:15;93,4
2018-07-28 12:30;94,4
2018-07-28 12:45;93
2018-07-28 13:00;89,85
2018-07-28 13:15;88,85
2018-07-28 13:30;87,8
2018-07-28 13:45;88,45
2018-07-28 14:00;89,25
2018-07-28 14:15;90,3
2018-07-28 14:30;92,05
2018-07-28 14:45;93,8
2018-07-28 15:00;98,05
2018-07-28 15:15;97,2
2018-07-28 15:30;96,15
2018-07-28 15:45;97,9
2018-07-28 16:00;95,75
2018-07-28 16:15;95,7
2018-07-28 16:30;97,5
2018-07-28 16:45;95
2018-07-28 17:00;94,6
2018-07-28 17:15;92,55
2018-07-28 17:30;92,05
2018-07-28 17:45;92,85
2018-07-28 18:00;91,3
2018-07-28 18:15;91,25
2018-07-28 18:30;90,3
2018-07-28 18:45;88,3
2018-07-28 19:00;87,15
2018-07-28 19:15;86,65
2018-07-28 19:30;86,55
2018-07-28 19:45;89
2018-07-28 20:00;84,9
2018-07-28 20:15;87,85
2018-07-28 20:30;87,3
2018-07-28 20:45;89,8
2018-07-28 21:00;91,8
2018-07-28 21:15;93,1
2018-07-28 21:30;90,15
2018-07-28 21:45;91,45
2018-07-28 22:00;89,9
2018-07-28 22:15;89,65
2018-07-28 22:30;88,1
2018-07-28 22:45;88,95
2018-07-28 23:00;90,5
2018-07-28 23:15;88,8
2018-07-28 23:30;88,95
2018-07-28 23:45;95,15
2018-07-29 00:00;84,8
2018-07-29 00:15;86,55
2018-07-29 00:30;84,4
2018-07-29 00:45;90,45
2018-07-29 01:00;91,9
2018-07-29 01:15;90,4
2018-07-29 01:30;90,35
2018-07-29 01:45;88,75
2018-07-29 02:00;85,1
2018-07-29 02:15;83,2
2018-07-29 02:30;83,85
2018-07-29 02:45;82,3
2018-07-29 03:00;79,9
2018-07-29 03:15;82,6
2018-07-29 03:30;80,8
2018-07-29 03:45;82,95
2018-07-29 04:00;81,9
2018-07-29 04:15;81,65
2018-07-29 04:30;82
2018-07-29 04:45;82,15
2018-07-29 05:00;81,65
2018-07-29 05:15;83,35
2018-07-29 05:30;81,1
2018-07-29 05:45;83,45
2018-07-29 06:00;81,4
2018-07-29 06:15;80,15
2018-07-29 06:30;78,8
2018-07-29 06:45;76,9
2018-07-29 07:00;77
2018-07-29 07:15;74,85
2018-07-29 07:30;75,45
2018-07-29 07:45;73,4
2018-07-29 08:00;75,3
2018-07-29 08:15;74,55
2018-07-29 08:30;75,1
2018-07-29 08:45;76,2
2018-07-29 09:00;77,3
2018-07-29 09:15;76
2018-07-29 09:30;79,25
2018-07-29 09:45;80,6
2018-07-29 10:00;80,6
2018-07-29 10:15;83,1
2018-07-29 10:30;84,25
2018-07-29 10:45;83,7
2018-07-29 11:00;83,55
2018-07-29 11:15;83,6
2018-07-29 11:30;85,3
2018-07-29 11:45;83,9
2018-07-29 12:00;85,9
2018-07-29 12:15;84
2018-07-29 12:30;85,7
2018-07-29 12:45;85,55
2018-07-29 13:00;86,45
2018-07-29 13:15;86,75
2018-07-29 13:30;85,6
2018-07-29 13:45;87,65
2018-07-29 14:00;89,2
2018-07-29 14:15;86,9
2018-07-29 14:30;90,9
2018-07-29 14:45;88,9
2018-07-29 15:00;89,95
2018-07-29 15:15;88,25
2018-07-29 15:30;88,05
2018-07-29 15:45;87,85
2018-07-29 16:00;85,85
2018-07-29 16:15;86,25
2018-07-29 16:30;85,25
2018-07-29 16:45;86,3
2018-07-29 17:00;86,55
2018-07-29 17:15;84,95
2018-07-29 17:30;85,15
2018-07-29 17:45;84,3
2018-07-29 18:00;85,55
2018-07-29 18:15;86,1
2018-07-29 18:30;84,75
2018-07-29 18:45;88,9
2018-07-29 19:00;88,85
2018-07-29 19:15;88,65
2018-07-29 19:30;86,9
2018-07-29 19:45;90,7
2018-07-29 20:00;88,8
2018-07-29 20:15;90,2
2018-07-29 20:30;91,55
2018-07-29 20:45;94
2018-07-29 21:00;92,35
2018-07-29 21:15;94,8
2018-07-29 21:30;93,5
2018-07-29 21:45;94,1
2018-07-29 22:00;91,6
2018-07-29 22:15;94,3
2018-07-29 22:30;91,45
2018-07-29 22:45;90
2018-07-29 23:00;94,65
2018-07-29 23:15;88,9
2018-07-29 23:30;90,5
2018-07-29 23:45;93,5

